Weather History for Gillette, WY

Change the Weather History Date:

Wednesday, January 16, 2013

  Actual Average Record
Temperature  
Mean Temperature 33 °F 26 °F  
Max Temperature 40 °F 38 °F - ()
Min Temperature 25 °F 15 °F - ()
Degree Days  
Heating Degree Days 32 39  
Month to date heating degree days 688 629  
Since 1 July heating degree days 3528 3770  
Cooling Degree Days 0 0  
Month to date cooling degree days 0 0  
Year to date cooling degree days 0 0  
Moisture  
Dew Point 20 °F    
Average Humidity 57    
Maximum Humidity 69    
Minimum Humidity 44    
Precipitation  
Precipitation 0.00 in 0.01 in - ()
Month to date precipitation 0.15 0.16  
Year to date precipitation 0.15 0.16  
Sea Level Pressure  
Sea Level Pressure 30.21 in    
Wind  
Wind Speed 14 mph (West)    
Max Wind Speed 22 mph    
Max Gust Speed 25 mph    
Visibility 10 miles    
Events      
T = Trace of Precipitation, MM = Missing Value Source: NWS Daily Summary

Daily Weather History Graph

Daily Weather History Graph

Search for Another Location

Airport:

Trip Planner

Search our weather history database for the weather conditions in past years. The results will help you decide how hot, cold, wet, or windy it might be!

Date:

Astronomy

Jan. 16, 2013 Rise Set
Actual Time 7:33 AM MST 4:50 PM MST
Civil Twilight 7:01 AM MST 5:22 PM MST
Nautical Twilight 6:25 AM MST 5:58 PM MST
Astronomical Twilight 5:51 AM MST 6:33 PM MST
Moon 9:57 AM MST (1/16) 11:00 PM MST (1/16)
Length of Visible Light 10h 20m
Length of Day
9h 16m
Waxing Crescent, 29% of the Moon is Illuminated
Jan 16
Waxing Crescent
Jan 18
First Quarter
Jan 26
Full
Feb 3
Last Quarter
Feb 10
New

Hourly Weather History & Observations

Time (MST) Temp. Windchill Dew Point Humidity Pressure Visibility Wind Dir Wind Speed Gust Speed Precip Events Conditions
12:53 AM 33.1 °F 24.4 °F 23.0 °F 66% 30.09 in 10.0 mi WNW 11.5 mph - N/A   Overcast
1:53 AM 33.1 °F 22.6 °F 21.9 °F 64% 30.09 in 10.0 mi WNW 16.1 mph - N/A   Overcast
2:53 AM 30.9 °F 21.7 °F 21.9 °F 69% 30.11 in 10.0 mi WNW 11.5 mph - N/A   Overcast
3:53 AM 28.9 °F 18.2 °F 19.9 °F 69% 30.12 in 10.0 mi WSW 13.8 mph - N/A   Mostly Cloudy
4:53 AM 32.0 °F 20.1 °F 21.0 °F 64% 30.09 in 10.0 mi WSW 19.6 mph - N/A   Overcast
5:53 AM 28.9 °F 16.9 °F 19.0 °F 67% 30.12 in 10.0 mi WSW 17.3 mph - N/A   Clear
6:53 AM 28.0 °F 20.0 °F 19.0 °F 69% 30.14 in 10.0 mi West 8.1 mph - N/A   Scattered Clouds
7:53 AM 34.0 °F 23.0 °F 19.9 °F 56% 30.13 in 10.0 mi West 18.4 mph - N/A   Overcast
8:53 AM 33.1 °F 23.0 °F 19.0 °F 56% 30.17 in 10.0 mi WSW 15.0 mph - N/A   Clear
9:53 AM 36.0 °F 26.7 °F 19.0 °F 50% 30.17 in 10.0 mi West 15.0 mph - N/A   Mostly Cloudy
10:53 AM 37.0 °F 28.5 °F 19.9 °F 50% 30.19 in 10.0 mi West 13.8 mph - N/A   Clear
11:53 AM 39.0 °F 31.8 °F 19.9 °F 46% 30.18 in 10.0 mi WNW 11.5 mph - N/A   Clear
12:53 PM 39.2 °F 30.8 °F 21.2 °F 49% 30.12 in 10.0 mi WNW 15.0 mph - N/A   Clear
1:53 PM 39.0 °F 30.6 °F 21.0 °F 49% 30.18 in 10.0 mi NW 15.0 mph - N/A   Clear
2:53 PM 39.0 °F 30.3 °F 19.9 °F 46% 30.20 in 10.0 mi NW 16.1 mph - N/A   Clear
3:53 PM 36.0 °F 29.0 °F 23.0 °F 59% 30.24 in 10.0 mi WNW 9.2 mph - N/A   Clear
4:53 PM 32.0 °F 23.6 °F 21.9 °F 66% 30.27 in 10.0 mi WNW 10.4 mph - N/A   Clear
5:53 PM 30.0 °F 21.1 °F 19.0 °F 64% 30.31 in 10.0 mi WNW 10.4 mph - N/A   Clear
6:53 PM 30.9 °F 21.2 °F 18.0 °F 59% 30.32 in 10.0 mi WNW 12.7 mph - N/A   Clear
7:53 PM 27.0 °F 17.3 °F 17.1 °F 66% 30.32 in 10.0 mi West 10.4 mph - N/A   Clear
8:53 PM 27.0 °F 16.1 °F 17.1 °F 66% 30.34 in 10.0 mi West 12.7 mph - N/A   Clear
9:53 PM 28.0 °F 17.0 °F 17.1 °F 63% 30.34 in 10.0 mi West 13.8 mph - N/A   Clear
10:53 PM 28.0 °F 16.5 °F 17.1 °F 63% 30.34 in 10.0 mi West 15.0 mph - N/A   Clear
11:53 PM 27.0 °F 16.1 °F 16.0 °F 63% 30.36 in 10.0 mi West 12.7 mph - N/A   Clear